Temp
50 50 49 49 48 48 47 46 46 46 46 45 44 44 43 43 43 43 43 43 42 42 42 42 42 41 42 43 42 43 44 42 42 42 41 41 41 41 40 40 40 41
48 48 48 48 46 46 46 46 45 45 44 44 44 44 43 43 43 43 42 42 43 42 42 41 41 41 40 40 40 41 41 41 40 41 39 39 40 40 39 39 40 40
46 46 46 45 44 44 44 45 45 44 43 43 44 43 42 42 42 42 41 41 41 41 41 41 40 40 39 39 39 40 40 39 39 39 38 39 40 39 39 39 39 38
46 45 44 44 43 43 44 44 44 44 44 42 41 42 42 41 42 41 41 40 40 40 40 40 39 39 38 38 38 39 39 39 39 38 37 38 38 38 38 38 37 37
44 44 44 44 44 44 43 42 41 42 41 41 42 42 41 41 41 40 40 39 39 39 39 39 39 38 38 37 37 38 38 38 38 37 36 36 37 37 37 36 35 35
44 44 44 44 44 43 42 41 41 41 40 40 40 41 40 40 39 38 38 38 38 38 37 37 37 37 37 36 37 37 37 36 36 35 35 35 36 37 36 35 35 34
42 43 42 43 42 42 41 40 40 40 40 40 40 39 39 38 38 37 37 36 36 36 36 35 35 35 35 35 35 35 35 35 34 34 34 34 35 34 35 34 34 33
42 42 42 42 41 41 40 40 40 39 39 40 38 38 37 36 36 36 36 35 35 35 35 35 34 34 34 34 34 33 33 34 33 33 33 33 33 32 33 33 33 32
42 42 41 41 40 41 40 39 39 38 39 38 38 37 37 36 35 34 34 34 34 34 34 34 33 33 34 33 33 32 32 32 32 32 31 31 31 31 31 32 31 31
42 42 42 41 41 40 39 39 39 38 37 37 37 37 35 35 34 33 33 34 33 33 33 33 33 32 32 33 32 32 31 31 31 31 31 31 30 30 30 30 29 29
42 42 41 41 40 39 38 38 37 37 36 35 36 35 34 34 34 34 32 33 32 32 31 32 31 31 31 31 31 31 31 30 30 30 30 30 30 30 30 29 28 28
42 42 41 40 39 38 37 37 36 36 35 34 34 33 33 33 32 32 32 31 31 31 31 31 31 30 30 30 30 30 30 30 30 29 29 29 29 29 29 29 28 28
41 41 40 39 38 37 37 36 35 34 33 32 32 31 31 31 31 30 31 30 29 30 29 29 29 29 30 29 29 29 29 28 28 28 28 28 28 28 28 28 28 28
41 41 39 39 38 36 35 34 33 32 31 30 30 30 29 29 28 28 29 29 28 28 29 29 28 28 29 28 27 27 26 26 26 26 26 26 26 27 28 28 28 27
40 39 38 36 35 34 32 31 31 30 29 29 28 28 28 28 27 27 27 27 28 27 27 28 27 27 27 25 23 24 24 24 24 24 24 24 25 26 26 27 27 27
38 36 35 34 33 32 31 30 29 28 27 27 26 27 26 26 26 26 26 26 26 26 27 26 26 27 25 22 23 23 23 23 23 23 24 24 23 24 25 26 26 27
36 35 34 32 32 31 27 27 27 25 24 24 23 23 23 23 23 24 25 25 25 25 25 25 26 26 23 23 23 23 23 23 22 22 23 23 23 23 23 24 25 25
35 33 32 30 28 26 24 24 23 22 22 21 21 21 21 21 22 23 24 24 24 23 23 24 25 25 23 23 22 23 23 23 22 21 22 23 23 23 23 23 23 23
34 30 28 26 25 24 22 21 20 20 20 19 19 21 20 19 22 22 21 22 22 21 21 22 23 23 23 22 22 22 23 23 22 22 21 21 22 22 22 22 22 21
31 28 27 25 24 21 21 19 19 18 20 20 19 19 18 20 20 18 19 19 20 20 20 21 21 22 22 21 21 22 22 23 21 21 21 21 21 21 21 21 21 20
29 27 26 24 21 20 19 19 19 19 19 19 18 18 18 17 17 16 17 16 15 16 17 17 18 20 20 21 21 21 22 23 21 21 20 20 21 21 21 21 21 21
28 26 24 22 21 19 18 19 18 18 16 19 18 19 18 18 17 17 15 14 14 13 13 14 17 20 20 20 20 21 22 20 19 19 18 19 19 20 20 21 21 21
28 26 24 21 20 18 17 18 18 17 17 18 16 17 16 16 15 14 14 13 12 12 11 13 13 16 18 19 19 20 20 18 18 18 18 18 18 20 20 21 22 22
28 25 22 20 19 17 17 18 19 18 16 17 15 16 16 14 14 13 13 12 11 10 11 10 11 14 17 18 19 19 19 18 18 17 17 17 18 20 20 21 22 22
26 24 22 20 18 18 17 18 17 17 17 15 15 15 14 14 13 12 12 12 11 10 12 11 10 12 15 17 18 19 19 18 17 17 16 17 17 18 20 20 21 22
24 22 21 20 18 18 17 17 17 15 14 13 13 14 13 14 12 11 9 10 11 10 9 9 9 10 12 16 18 18 20 19 18 16 16 16 18 18 18 20 21 22
MSLP
1028.48 1028.60 1028.74 1028.86 1029.06 1029.26 1029.48 1029.64 1029.76 1029.86 1029.98 1030.10 1030.28 1030.52 1030.74 1030.96 1031.06 1031.10 1031.12 1031.18 1031.22 1031.22 1031.22 1031.18 1031.14 1031.10 1031.00 1030.84 1030.86 1030.62 1030.50 1030.60 1030.58 1030.58 1030.64 1030.54 1030.40 1030.36 1030.38 1030.34 1030.26 1030.06
1028.82 1028.94 1029.08 1029.28 1029.50 1029.68 1029.82 1029.94 1030.08 1030.16 1030.26 1030.34 1030.48 1030.66 1030.88 1031.04 1031.10 1031.18 1031.26 1031.22 1031.22 1031.32 1031.34 1031.32 1031.30 1031.28 1031.26 1031.16 1031.10 1030.90 1030.78 1030.80 1030.84 1030.72 1030.82 1030.70 1030.54 1030.48 1030.48 1030.48 1030.30 1030.18
1029.16 1029.32 1029.46 1029.62 1029.88 1030.08 1030.14 1030.16 1030.22 1030.32 1030.48 1030.60 1030.68 1030.82 1031.04 1031.12 1031.22 1031.28 1031.42 1031.44 1031.40 1031.44 1031.50 1031.48 1031.48 1031.42 1031.42 1031.36 1031.26 1030.98 1030.94 1030.98 1030.90 1030.92 1030.94 1030.78 1030.64 1030.66 1030.60 1030.60 1030.48 1030.42
1029.46 1029.66 1029.86 1030.04 1030.14 1030.22 1030.22 1030.28 1030.34 1030.44 1030.54 1030.72 1030.96 1031.06 1031.14 1031.26 1031.30 1031.42 1031.50 1031.56 1031.58 1031.60 1031.62 1031.62 1031.60 1031.58 1031.56 1031.46 1031.36 1031.12 1031.08 1031.00 1030.98 1031.10 1031.08 1030.88 1030.76 1030.74 1030.76 1030.72 1030.68 1030.58
1029.70 1029.88 1030.00 1030.10 1030.16 1030.22 1030.30 1030.44 1030.60 1030.74 1030.86 1030.96 1031.04 1031.10 1031.24 1031.34 1031.42 1031.56 1031.64 1031.68 1031.68 1031.74 1031.74 1031.72 1031.70 1031.70 1031.66 1031.58 1031.44 1031.24 1031.18 1031.06 1031.08 1031.26 1031.24 1031.12 1030.90 1030.80 1030.84 1030.82 1030.80 1030.70
1029.84 1029.96 1030.08 1030.12 1030.16 1030.28 1030.50 1030.70 1030.82 1030.92 1031.04 1031.16 1031.24 1031.32 1031.50 1031.56 1031.66 1031.80 1031.88 1031.92 1031.92 1031.94 1031.92 1031.90 1031.86 1031.82 1031.76 1031.72 1031.52 1031.36 1031.36 1031.30 1031.38 1031.42 1031.38 1031.22 1031.02 1030.94 1030.92 1030.90 1030.82 1030.76
1029.92 1030.02 1030.12 1030.14 1030.28 1030.48 1030.68 1030.86 1030.98 1031.06 1031.18 1031.30 1031.44 1031.58 1031.72 1031.78 1031.94 1032.06 1032.10 1032.14 1032.12 1032.10 1032.12 1032.08 1032.06 1032.00 1031.90 1031.80 1031.66 1031.62 1031.58 1031.52 1031.60 1031.54 1031.46 1031.34 1031.16 1031.10 1030.94 1030.92 1030.90 1030.84
1029.88 1029.98 1030.06 1030.20 1030.42 1030.60 1030.74 1030.92 1031.06 1031.24 1031.34 1031.40 1031.60 1031.82 1031.94 1032.08 1032.16 1032.26 1032.30 1032.30 1032.28 1032.24 1032.22 1032.16 1032.14 1032.08 1031.98 1031.94 1031.86 1031.84 1031.76 1031.66 1031.70 1031.62 1031.56 1031.46 1031.30 1031.22 1031.10 1031.04 1031.04 1030.92
1029.74 1029.90 1030.04 1030.22 1030.42 1030.56 1030.76 1030.94 1031.16 1031.34 1031.44 1031.56 1031.70 1031.92 1032.08 1032.22 1032.38 1032.40 1032.46 1032.40 1032.32 1032.26 1032.18 1032.18 1032.14 1032.10 1032.06 1032.02 1032.02 1031.96 1031.94 1031.86 1031.80 1031.76 1031.70 1031.60 1031.52 1031.40 1031.32 1031.24 1031.22 1031.06
1029.66 1029.80 1029.96 1030.10 1030.30 1030.50 1030.74 1030.92 1031.14 1031.40 1031.58 1031.74 1031.86 1031.98 1032.18 1032.34 1032.46 1032.54 1032.48 1032.38 1032.30 1032.22 1032.18 1032.20 1032.20 1032.20 1032.20 1032.10 1032.12 1032.12 1032.10 1032.06 1031.98 1031.90 1031.80 1031.70 1031.64 1031.56 1031.50 1031.46 1031.34 1031.22
1029.50 1029.66 1029.84 1030.02 1030.22 1030.50 1030.78 1031.00 1031.22 1031.44 1031.68 1031.90 1032.00 1032.14 1032.26 1032.34 1032.36 1032.42 1032.46 1032.30 1032.34 1032.30 1032.34 1032.30 1032.32 1032.34 1032.32 1032.28 1032.22 1032.22 1032.24 1032.20 1032.10 1031.96 1031.86 1031.78 1031.70 1031.62 1031.56 1031.50 1031.46 1031.34
1029.30 1029.48 1029.74 1029.96 1030.22 1030.52 1030.80 1031.02 1031.28 1031.54 1031.82 1032.04 1032.22 1032.30 1032.30 1032.34 1032.44 1032.38 1032.40 1032.50 1032.42 1032.48 1032.44 1032.46 1032.44 1032.46 1032.46 1032.38 1032.36 1032.34 1032.30 1032.20 1032.12 1032.06 1031.96 1031.86 1031.76 1031.66 1031.58 1031.56 1031.50 1031.38
1029.10 1029.32 1029.58 1029.92 1030.18 1030.44 1030.78 1031.10 1031.40 1031.74 1031.96 1032.18 1032.32 1032.38 1032.36 1032.32 1032.40 1032.50 1032.50 1032.60 1032.64 1032.62 1032.62 1032.60 1032.62 1032.56 1032.48 1032.44 1032.44 1032.40 1032.36 1032.30 1032.26 1032.18 1032.10 1031.98 1031.84 1031.72 1031.58 1031.50 1031.40 1031.32
1028.92 1029.24 1029.52 1029.78 1030.12 1030.54 1030.86 1031.20 1031.58 1031.90 1032.14 1032.32 1032.40 1032.40 1032.40 1032.44 1032.52 1032.60 1032.58 1032.66 1032.72 1032.72 1032.68 1032.68 1032.68 1032.58 1032.50 1032.54 1032.60 1032.64 1032.60 1032.54 1032.46 1032.36 1032.24 1032.10 1031.94 1031.74 1031.54 1031.42 1031.32 1031.22
1028.84 1029.28 1029.54 1029.96 1030.36 1030.72 1031.04 1031.38 1031.66 1031.96 1032.20 1032.32 1032.38 1032.40 1032.46 1032.56 1032.64 1032.68 1032.74 1032.66 1032.66 1032.70 1032.72 1032.68 1032.68 1032.60 1032.60 1032.86 1033.02 1032.96 1032.90 1032.84 1032.64 1032.48 1032.36 1032.18 1031.94 1031.74 1031.52 1031.34 1031.20 1031.06
1028.86 1029.34 1029.68 1030.08 1030.46 1030.76 1031.00 1031.40 1031.72 1032.02 1032.24 1032.32 1032.40 1032.44 1032.58 1032.64 1032.74 1032.74 1032.76 1032.72 1032.70 1032.66 1032.62 1032.64 1032.62 1032.56 1032.80 1033.10 1033.12 1033.06 1032.98 1032.80 1032.68 1032.54 1032.38 1032.20 1032.02 1031.80 1031.52 1031.28 1031.10 1030.98
1028.82 1029.26 1029.66 1030.10 1030.38 1030.70 1031.06 1031.44 1031.74 1031.98 1032.18 1032.34 1032.46 1032.60 1032.74 1032.88 1032.84 1032.80 1032.70 1032.70 1032.72 1032.70 1032.66 1032.56 1032.56 1032.56 1032.82 1032.94 1032.96 1032.88 1032.80 1032.74 1032.62 1032.48 1032.30 1032.14 1031.96 1031.76 1031.52 1031.26 1031.08 1030.96
1028.62 1029.16 1029.60 1030.00 1030.40 1030.82 1031.22 1031.48 1031.76 1032.06 1032.24 1032.42 1032.54 1032.70 1032.74 1032.82 1032.82 1032.72 1032.72 1032.74 1032.76 1032.72 1032.66 1032.54 1032.48 1032.52 1032.74 1032.80 1032.82 1032.74 1032.62 1032.54 1032.44 1032.32 1032.16 1032.00 1031.82 1031.70 1031.46 1031.28 1031.14 1031.02
1028.48 1029.08 1029.56 1030.02 1030.38 1030.80 1031.24 1031.62 1031.94 1032.12 1032.28 1032.44 1032.56 1032.52 1032.72 1032.88 1032.74 1032.78 1032.82 1032.72 1032.78 1032.74 1032.70 1032.60 1032.54 1032.48 1032.62 1032.66 1032.66 1032.56 1032.42 1032.32 1032.26 1032.14 1032.04 1031.86 1031.74 1031.60 1031.46 1031.34 1031.20 1031.08
1028.42 1028.96 1029.38 1029.88 1030.32 1030.78 1031.16 1031.54 1031.82 1032.00 1032.10 1032.24 1032.46 1032.66 1032.76 1032.68 1032.68 1032.94 1032.84 1032.84 1032.80 1032.82 1032.80 1032.64 1032.52 1032.46 1032.54 1032.56 1032.52 1032.40 1032.26 1032.14 1032.06 1031.98 1031.88 1031.76 1031.68 1031.56 1031.46 1031.30 1031.20 1031.14
1028.26 1028.82 1029.18 1029.74 1030.24 1030.66 1030.98 1031.30 1031.54 1031.72 1032.00 1032.20 1032.36 1032.46 1032.52 1032.68 1032.68 1032.82 1032.80 1032.94 1033.04 1033.04 1032.96 1032.84 1032.64 1032.54 1032.50 1032.44 1032.38 1032.28 1032.12 1031.96 1031.94 1031.88 1031.84 1031.74 1031.64 1031.56 1031.40 1031.30 1031.22 1031.06
1028.02 1028.48 1028.96 1029.50 1030.06 1030.44 1030.76 1031.04 1031.30 1031.54 1031.98 1031.98 1032.10 1032.14 1032.26 1032.38 1032.48 1032.58 1032.86 1033.06 1033.08 1033.16 1033.18 1032.96 1032.58 1032.40 1032.38 1032.36 1032.30 1032.22 1032.06 1032.00 1031.98 1031.90 1031.82 1031.66 1031.52 1031.42 1031.28 1031.16 1031.02 1030.88
1027.64 1028.04 1028.48 1029.14 1029.62 1030.06 1030.48 1030.70 1030.98 1031.40 1031.72 1031.76 1032.08 1031.94 1032.14 1032.22 1032.48 1032.62 1032.72 1032.88 1033.04 1033.14 1033.16 1032.90 1032.62 1032.42 1032.36 1032.30 1032.24 1032.14 1032.08 1032.10 1032.04 1031.92 1031.72 1031.58 1031.44 1031.20 1031.04 1030.88 1030.74 1030.58
1027.12 1027.50 1028.00 1028.64 1029.16 1029.48 1029.96 1030.26 1030.60 1031.06 1031.48 1031.52 1031.72 1031.72 1031.84 1032.12 1032.36 1032.56 1032.74 1032.84 1032.94 1033.02 1032.92 1032.92 1032.68 1032.46 1032.30 1032.16 1032.06 1032.00 1032.00 1031.98 1031.90 1031.80 1031.64 1031.44 1031.24 1031.02 1030.84 1030.64 1030.40 1030.24
1026.62 1027.12 1027.64 1028.14 1028.62 1029.10 1029.56 1029.84 1030.26 1030.76 1031.08 1031.42 1031.46 1031.50 1031.78 1032.02 1032.30 1032.44 1032.60 1032.62 1032.66 1032.78 1032.76 1032.76 1032.66 1032.46 1032.20 1031.98 1031.90 1031.84 1031.82 1031.82 1031.76 1031.64 1031.50 1031.24 1031.06 1030.82 1030.56 1030.32 1030.06 1029.84
1026.34 1026.92 1027.38 1027.78 1028.22 1028.88 1029.42 1029.64 1030.20 1030.78 1031.12 1031.30 1031.48 1031.46 1031.68 1031.80 1032.22 1032.30 1032.58 1032.58 1032.48 1032.58 1032.68 1032.60 1032.54 1032.32 1032.12 1031.80 1031.68 1031.60 1031.46 1031.44 1031.40 1031.42 1031.26 1031.02 1030.80 1030.54 1030.30 1029.98 1029.70 1029.38
Wind_Speed
7 6 6 6 6 6 6 6 6 6 6 6 6 5 5 4 4 4 4 4 4 4 4 5 5 5 5 5 5 4 4 4 4 4 5 5 4 5 4 6 6 5
7 6 6 6 6 6 6 6 6 6 6 5 5 5 4 4 4 4 4 4 4 5 4 4 5 4 5 4 5 4 4 4 4 4 5 5 4 4 4 6 5 5
6 6 6 6 6 7 6 6 6 5 5 5 5 5 4 3 4 4 4 4 4 4 4 4 4 5 5 4 5 4 4 4 4 5 5 5 4 4 4 5 5 6
6 6 6 6 6 6 5 5 5 5 5 5 5 4 3 3 3 3 3 4 3 4 4 4 4 4 4 4 5 3 4 3 3 4 5 4 4 4 4 4 5 5
7 6 6 6 5 6 5 6 6 5 5 5 4 4 4 4 3 3 3 3 3 3 4 3 4 4 4 4 4 3 4 3 4 4 4 5 4 4 4 4 5 6
6 6 6 6 6 6 5 6 5 5 5 5 4 4 3 4 3 3 3 3 3 3 3 3 4 4 4 4 4 3 4 3 4 5 5 5 5 4 4 4 5 6
7 6 6 6 6 6 6 5 5 5 4 4 4 4 3 3 3 3 3 2 2 3 3 3 3 4 3 4 3 4 4 4 4 4 5 5 5 5 4 5 5 6
7 6 6 6 6 6 6 5 5 4 4 3 4 3 3 2 2 2 2 2 2 2 2 2 3 3 3 3 3 4 4 3 4 5 5 5 5 5 5 4 5 6
7 6 6 7 6 5 6 5 5 4 3 3 3 3 3 2 2 1 1 1 1 1 2 2 3 3 3 3 4 4 4 4 4 5 5 5 5 5 6 6 6 6
7 7 8 7 6 5 6 6 5 4 3 3 2 2 2 2 2 1 1 1 1 2 3 3 3 3 3 4 4 4 4 5 4 4 4 5 5 5 5 5 6 6
8 7 7 7 6 6 6 6 5 4 3 2 2 2 2 2 1 1 1 1 1 2 3 3 3 3 4 4 4 4 4 4 5 4 4 5 5 5 5 5 6 6
8 8 8 7 7 6 6 5 5 4 3 3 2 2 2 2 1 1 1 2 2 2 2 3 3 3 3 4 4 4 4 4 4 5 5 5 5 5 5 5 5 6
8 8 7 7 7 6 6 5 5 4 3 3 2 2 2 1 1 1 0 1 1 2 2 2 3 3 3 3 4 4 4 4 5 5 5 5 5 5 6 6 6 6
8 7 7 7 6 6 6 6 5 4 4 3 2 2 2 1 1 1 1 1 1 2 2 2 3 3 2 3 3 4 4 5 5 5 5 5 6 6 6 6 6 7
8 7 6 7 7 6 6 6 5 4 3 3 2 2 2 2 1 1 1 2 2 2 2 2 2 2 1 2 3 4 4 5 5 6 6 6 6 6 6 7 7 6
8 7 7 7 7 6 6 6 5 4 4 3 3 2 2 2 2 2 2 2 2 2 2 2 2 2 0 3 5 4 5 5 5 6 6 6 7 7 7 7 7 7
8 7 7 7 7 6 4 6 5 4 3 2 2 2 3 2 3 3 3 2 3 2 3 3 2 2 3 5 6 7 6 5 6 6 6 7 7 7 7 7 7 7
8 8 8 7 6 5 5 4 4 3 3 3 3 3 2 2 3 3 3 3 2 3 3 3 3 4 5 6 7 7 7 6 6 6 6 6 7 7 7 7 7 7
8 7 6 5 5 5 5 4 4 4 4 4 4 3 3 3 4 4 4 3 3 3 4 4 4 4 5 6 7 8 9 8 5 6 6 7 7 8 8 8 7 7
8 6 6 6 5 5 5 5 5 5 4 4 3 3 4 4 3 3 3 3 3 3 4 4 5 5 6 7 8 9 9 8 6 7 7 7 8 8 8 7 7 8
7 6 6 6 6 6 5 5 5 5 5 4 4 5 5 4 4 4 3 2 2 2 4 4 5 7 7 8 9 10 10 9 6 6 6 7 7 7 8 9 9 9
7 7 6 6 7 6 6 6 6 6 6 5 4 4 3 2 2 2 3 3 3 3 3 5 6 7 7 8 9 9 11 6 6 6 6 6 7 8 8 8 8 9
9 7 6 7 7 7 6 6 7 6 6 5 4 4 4 4 4 3 2 3 3 3 4 5 5 6 7 9 9 10 8 5 5 6 6 7 7 8 8 8 8 9
9 9 11 8 7 8 7 6 5 4 5 5 5 5 4 4 3 3 3 3 4 4 4 4 5 7 9 9 10 10 8 6 6 6 7 7 7 8 7 8 10 14
8 9 10 11 10 8 7 8 6 5 5 4 3 3 3 3 3 2 3 3 3 4 6 6 5 7 10 10 10 9 7 5 5 6 7 7 7 7 8 8 9 10
9 11 11 12 11 8 5 5 4 4 4 4 4 3 3 3 3 3 3 3 3 3 4 5 5 5 6 10 9 10 10 6 5 6 7 7 7 7 8 8 8 9
Wind_Direction
104 106 104 101 96 95 94 94 91 91 87 84 84 80 77 79 61 50 50 55 48 40 35 30 26 22 10 18 8 3 21 18 8 15 354 351 345 351 341 344 333 333
98 96 98 101 101 98 96 95 97 97 92 88 90 90 83 75 65 53 38 37 45 41 31 27 21 20 13 8 360 354 8 6 3 3 343 338 338 340 344 335 325 334
108 108 110 111 112 112 111 107 102 96 92 90 85 79 77 66 57 49 44 28 32 34 29 22 16 17 9 2 349 349 2 347 354 354 338 332 332 328 332 329 328 327
116 116 117 120 123 123 118 115 109 101 97 87 76 78 78 64 56 45 48 35 33 26 24 17 12 10 2 353 348 346 350 339 357 347 331 327 329 331 326 327 317 319
130 132 132 128 123 115 109 102 94 90 92 90 87 73 63 57 47 47 38 27 32 22 16 11 12 7 357 353 341 346 344 347 359 350 332 326 323 336 327 323 321 317
141 139 134 130 124 115 107 104 102 101 95 89 78 71 66 56 53 44 35 28 19 22 11 8 9 5 357 348 340 351 345 349 342 337 331 323 328 335 325 322 323 318
147 144 134 122 114 112 110 106 102 92 86 92 88 74 61 62 60 47 35 26 16 13 16 358 2 356 346 344 341 341 337 339 328 329 328 324 327 326 326 330 323 318
150 144 135 124 124 123 115 113 104 96 98 98 97 90 84 73 69 61 27 21 8 359 5 352 353 347 340 342 338 332 332 335 328 331 326 325 328 325 331 330 324 317
153 148 138 135 134 129 122 116 109 102 98 100 95 109 106 82 63 54 27 356 345 359 1 356 355 348 341 339 332 332 328 330 329 328 325 324 325 325 327 326 325 321
158 150 148 147 141 130 127 120 116 110 102 102 107 106 115 109 117 66 18 346 356 10 1 354 352 347 338 335 332 328 327 323 323 321 319 316 316 319 321 321 318 319
161 157 156 153 142 135 129 122 121 118 111 114 136 141 134 135 136 113 22 14 13 2 348 345 344 336 329 324 325 324 321 317 313 318 314 313 310 308 313 315 313 311
166 162 161 153 143 136 132 128 122 125 132 141 146 159 148 143 111 44 74 6 358 338 334 329 331 324 316 314 319 322 315 314 315 313 311 308 307 305 308 306 302 303
169 167 159 152 147 140 134 131 130 131 148 153 152 156 148 134 96 116 15 36 312 327 311 324 316 308 306 316 320 321 321 319 318 312 308 308 301 303 300 297 296 297
170 163 156 149 140 135 136 135 134 143 150 153 156 172 140 135 137 129 192 198 276 290 296 301 301 294 304 326 335 331 324 317 311 308 305 303 300 297 299 294 293 292
158 152 145 135 138 138 138 140 144 149 157 158 165 156 137 147 166 177 209 224 233 251 264 282 274 276 299 3 333 324 316 306 302 300 300 298 299 297 296 293 291 290
152 147 147 144 148 150 145 145 148 156 163 168 168 163 162 160 182 209 213 226 237 253 263 254 256 251 162 295 296 297 301 295 296 292 293 296 297 297 294 293 291 290
149 154 150 157 156 146 141 146 154 158 165 169 173 167 179 179 208 205 213 217 226 250 261 263 248 233 240 285 295 297 297 292 290 290 287 289 289 290 293 295 293 295
157 152 157 159 151 146 146 150 150 156 169 177 181 180 191 186 213 206 212 218 223 243 252 253 261 253 266 283 294 295 295 293 288 287 287 287 288 288 289 292 296 297
154 156 160 156 156 148 147 144 151 164 179 183 192 184 180 195 206 194 212 215 227 242 256 263 262 262 269 286 293 295 297 296 286 283 283 283 283 285 287 290 292 295
157 159 159 160 151 147 149 154 164 180 184 187 176 177 194 197 194 202 211 217 230 251 262 267 270 266 277 287 293 296 297 295 286 283 280 278 278 281 284 286 290 292
161 162 161 157 151 154 157 166 171 180 179 187 180 191 188 193 194 201 207 212 235 248 260 271 269 269 277 287 294 298 297 298 288 283 278 275 275 273 280 283 284 286
160 165 162 158 159 159 163 175 175 181 183 189 184 187 185 182 192 184 200 216 228 233 250 264 268 275 283 291 296 297 300 299 288 278 276 274 274 274 276 275 278 278
170 168 163 164 164 161 174 179 174 179 186 182 177 189 181 188 183 193 203 213 223 228 240 260 270 282 286 289 291 293 300 291 281 273 271 275 275 277 277 278 275 278
176 170 160 159 163 173 173 176 166 174 183 183 176 180 180 178 181 188 206 219 224 230 235 249 268 279 284 284 284 286 284 280 276 277 276 277 279 278 279 277 277 278
166 156 165 162 163 174 168 172 166 175 172 166 176 167 166 167 179 194 204 224 225 233 245 248 259 271 277 277 275 275 276 269 268 272 275 277 280 285 283 282 283 281
167 180 182 181 170 157 151 151 144 163 163 167 171 172 172 178 177 196 199 233 238 234 238 240 246 253 256 264 266 268 268 264 267 266 272 279 281 286 289 285 283 285